User: anonymous   Login
Location: *
(2.5500°S, 65.9667°W)
Time: 18:28:19
(UTC+00:00)
Language:

Cosmos 44 Rocket - Orbit

View from above orbital plane
View from above orbital plane
View from above satellite
View from above satellite

Ground track
Ground track

The orbit data is extracted from the following two-line orbital elements,

1   877U 64053B   22022.14020557 -.00000000  00000-0  24849-4 0  9994
2   877  65.0781  63.1265 0065719 185.7184 174.3173 14.59470324 46663
Epoch (UTC): 22 January 2022 03:21:53
Eccentricity: 0.0065719
inclination: 65.0781°
perigee height: 648 km
apogee height: 741 km
right ascension of ascending node: 63.1265°
argument of perigee: 185.7184°
revolutions per day: 14.59470324
mean anomaly at epoch: 174.3173°
orbit number at epoch: 4666

The dashed part of the orbit path shows where the satellite is in the earth's shadow,  

DLR